Regional Weather Roundup
Issued by NWS

Home | Current Version | Previous Version | Graphics & Text | Print | Product List | Glossary On
Versions: 1 2 3 4 5 6 7 8 9 10 11 12 13 14 15 16 17 18 19 20 21 22 23 24 25 26 27 28 29 30 31 32 33 34 35 36 37 38 39 40 41 42 43 44 45 46 47 48 49 50
000
ASUS43 KLSX 041910
RWRMO

WEATHER SUMMARY FOR MISSOURI
NATIONAL WEATHER SERVICE SPRINGFIELD MO
200 PM CDT FRI SEP 04 2015

NOTE: "FAIR" INDICATES FEW OR NO CLOUDS BELOW 12,000 FEET WITH NO
       SIGNIFICANT WEATHER AND/OR OBSTRUCTIONS TO VISIBILITY.
       CURRENT SKY AND/OR WEATHER CONDITIONS ARE NOT AVAILABLE FOR
       CHILLICOTHE AND FARMINGTON.

MOZ001>031-035>038-043-044-053-054-042000-
...NORTHERN AND WESTERN MISSOURI...

CITY           SKY/WX    TMP DP  RH WIND       PRES   REMARKS
KANSAS CTY INT MOSUNNY   92  67  43 S15G23    29.97F HX  95
KANSAS C DTWN  SUNNY     92  68  45 S12G18    29.95F HX  96
LEE`S SUMMIT   SUNNY     90  66  45 S13G22    29.99F HX  92
ST JOSEPH      SUNNY     90  70  51 S13       29.94F HX  95
CHILLICOTHE      N/A     91  69  48 S9        29.98F HX  96
KIRKSVILLE     SUNNY     90  66  45 S6        30.00F HX  92

$$
MOZ066>068-077>081-088>096-101>105-042000-
...SOUTHWEST MISSOURI...

CITY           SKY/WX    TMP DP  RH WIND       PRES   REMARKS
SPRINGFIELD    SUNNY     88  66  48 S8        30.03F HX  90

$$
MOZ032>034-039>042-045>050-055>058-069>072-042000-
...CENTRAL MISSOURI...

CITY           SKY/WX    TMP DP  RH WIND       PRES   REMARKS
COLUMBIA       MOSUNNY   90  70  51 S8        30.01F HX  95
JEFFERSON CITY SUNNY     91  63  39 S8        29.99F HX  92
ROLLA          MOSUNNY   91  66  43 VRB7      30.02F HX  93
SEDALIA        MOSUNNY   93  67  42 SW7       30.01F HX  96
WHITEMAN AFB   SUNNY     92  67  43 SW14G20   29.98F HX  95
WARRENSBURG    SUNNY     90  64  43 S6        29.99F HX  91
OSAGE BEACH    MOSUNNY   91  64  40 SE7       30.02F HX  93

$$
MOZ051-052-059>065-042000-
...EAST CENTRAL MISSOURI...

CITY           SKY/WX    TMP DP  RH WIND       PRES   REMARKS
ST LOUIS INTL  MOSUNNY   94  66  39 VRB5      30.01F HX  97
SPIRIT OF STL  PTSUNNY   91  70  49 S6        29.99F HX  96
ST CHARLES     SUNNY     92  68  45 W6        29.99F HX  96

$$
MOZ072>076-082>087-097>100-106>115-042000-
...SOUTH CENTRAL AND SOUTHEAST MISSOURI...

CITY           SKY/WX    TMP DP  RH WIND       PRES   REMARKS
CAPE GIRARDEAU MOSUNNY   93  69  45 NE5       30.01F HX  98
FARMINGTON     MOSUNNY   90  68  48 S7        30.07F HX  93
POPLAR BLUFF   MOSUNNY   90  70  51 VRB6      30.01F HX  95
WEST PLAINS    PTSUNNY   86  67  52 SW5       30.06F

$$



USA.gov is the U.S. government's official web portal to all federal, state and local government web resources and services.